Regional Weather Roundup
Issued by NWS

Home | Current Version | Previous Version | Text Only | Print | Product List | Glossary On
Versions: 1 2 3 4 5 6 7 8 9 10 11 12 13 14 15 16 17 18 19 20 21 22 23 24 25 26 27 28
000
ASUS45 KBOI 250810
RWRID
WEATHER ROUNDUP FOR IDAHO
NATIONAL WEATHER SERVICE BOISE ID
200 AM MDT SAT OCT 25 2014

NOTE: "FAIR" INDICATES FEW OR NO CLOUDS BELOW 12000 FEET
WITH NO SIGNIFICANT WEATHER AND/OR OBSTRUCTIONS TO VISIBILITY

IDZ012-014-250900-
SOUTHWEST IDAHO


CITY           SKY/WX    TMP DP  RH WIND       PRES   REMARKS
BOISE          PTCLDY    47  46  97 CALM      29.92F FOG
CALDWELL       CLEAR     45  36  70 CALM      29.94F
MOUNTAIN HOME  DRIZZLE   42  42 100 CALM      29.92F FOG
$$

IDZ016-017-250900-
SOUTHCENTRAL IDAHO


CITY           SKY/WX    TMP DP  RH WIND       PRES   REMARKS
BURLEY         CLEAR     41  33  73 NE3       29.99F
JEROME         CLEAR     48  29  47 NE16      29.98F
TWIN FALLS     CLEAR     54  29  38 S7        29.97F
$$

IDZ019>023-250900-
SOUTHEAST IDAHO


CITY           SKY/WX    TMP DP  RH WIND       PRES   REMARKS
IDAHO FALLS    CLEAR     42  31  64 N5        30.09F
POCATELLO      CLEAR     42  30  62 W5        30.06F
REXBURG        CLEAR     37  30  75 NE6       30.11F WCI  32
$$

IDZ006-010-011-018-031-032-250900-
CENTRAL IDAHO MOUNTAINS


CITY           SKY/WX    TMP DP  RH WIND       PRES   REMARKS
MCCALL         FOG       34  34 100 CALM      29.98S VSB 1/2
HAILEY         CLEAR     41  32  70 NW13G18   30.11F
STANLEY          N/A     30  27  88 CALM      30.13S
SALMON         CLOUDY    37  37 100 CALM      30.08F
CHALLIS        CLEAR     32  31  96 CALM      30.09F
$$

IDZ002-004-006-007-026-250900-
NORTHERN IDAHO


CITY           SKY/WX    TMP DP  RH WIND       PRES   REMARKS
LEWISTON       CLOUDY    51  48  89 NE7       29.86F
LOWELL           N/A     48  47  96 VRB3      29.96F
COEUR D`ALENE  CLOUDY    46  41  81 N14       29.92F
MULLAN PASS    FOG       36  36 100 S10       29.98F VSB 1/4 WCI  28
$$



USA.gov is the U.S. government's official web portal to all federal, state and local government web resources and services.